EW5800 Weather Reports


Display with metric or nautical units.
time (UTC)temp
F
wind
direction
speed
MPH
gust
MPH
rain 1hr
in
rain 24hr
in
rain mn
in
humidity
%
barometer
mb
20260904143006 50 269 0.0 0.0 0.00 0.02 0.00 92 1012.1
20260904141508 50 269 0.0 0.0 0.00 0.02 0.00 92 1012.1
20260904140003 50 269 0.0 0.0 0.00 0.02 0.00 92 1011.8
20260904134502 50 269 0.0 0.0 0.00 0.02 0.00 92 1011.7
20260904133001 50 269 0.0 0.0 0.00 0.02 0.00 92 1011.5
20260904131606 50 269 0.0 0.0 0.00 0.02 0.00 92 1011.4
20260904130057 50 269 0.0 0.0 0.00 0.02 0.00 92 1011.1
20260904124601 50 269 0.0 0.0 0.00 0.02 0.00 92 1011.1
20260904123056 49 269 0.0 0.0 0.00 0.02 0.00 92 1010.9
20260904121552 49 269 0.0 0.0 0.00 0.02 0.00 92 1010.7
20260904120052 49 269 0.0 0.0 0.00 0.02 0.00 92 1010.5
20260904114549 49 269 0.0 0.0 0.00 0.02 0.00 92 1010.4
20260904113048 49 269 0.0 0.0 0.00 0.02 0.00 92 1010.4
20260904111553 50 269 0.0 0.0 0.00 0.02 0.00 92 1010.2
20260904110044 50 269 0.0 0.0 0.00 0.02 0.00 92 1010.2
20260904104551 50 269 0.0 0.0 0.00 0.02 0.00 92 1010.2
20260904103042 50 269 0.0 0.0 0.00 0.02 0.00 92 1010.1
20260904101540 51 269 0.0 0.0 0.00 0.02 0.00 92 1010.1
20260904100041 51 269 0.0 0.0 0.00 0.02 0.00 92 1010.1
20260904094537 51 269 0.0 0.0 0.00 0.02 0.00 92 1009.9
20260904093036 52 269 0.0 0.0 0.00 0.02 0.00 92 1010.0
20260904091533 52 269 0.0 0.0 0.00 0.02 0.00 91 1010.0
20260904090030 53 269 0.0 0.0 0.00 0.02 0.00 91 1010.0
20260904084535 54 269 0.0 0.0 0.00 0.02 0.00 91 1009.9
20260904083034 54 269 0.0 0.0 0.00 0.02 0.00 91 1010.0
20260904081526 54 269 0.0 1.0 0.00 0.02 0.00 91 1009.9
20260904080033 54 295 0.0 0.0 0.00 0.02 0.00 91 1010.0
20260904074525 54 295 0.0 0.0 0.00 0.02 0.00 91 1009.9
20260904073024 54 295 0.0 1.0 0.00 0.02 0.00 91 1009.9
20260904071522 54 330 0.0 0.0 0.00 0.02 0.00 91 1009.9
20260904070021 54 330 0.0 0.0 0.00 0.02 0.00 91 1009.9
20260904064526 54 330 0.0 0.0 0.00 0.02 0.02 91 1010.0
20260904063021 55 330 0.0 0.0 0.00 0.02 0.02 91 1010.0
20260904061516 55 330 0.0 0.0 0.00 0.02 0.02 90 1009.8
20260904060014 56 330 0.0 0.0 0.00 0.02 0.02 90 1009.7
20260904054515 56 330 0.0 0.0 0.00 0.02 0.02 90 1009.6
20260904053017 56 329 0.0 0.0 0.00 0.02 0.02 90 1009.6
20260904051511 56 331 0.0 0.0 0.00 0.02 0.02 90 1009.5
20260904050009 56 332 0.0 1.0 0.00 0.02 0.02 90 1009.5
20260904044511 56 69 0.0 0.0 0.00 0.02 0.02 89 1009.5
20260904043008 57 71 0.0 0.0 0.00 0.02 0.02 89 1009.6
20260904041506 57 71 0.0 0.0 0.00 0.02 0.02 88 1009.6
20260904040006 57 71 0.0 0.0 0.00 0.07 0.02 87 1009.5
20260904034505 57 71 0.0 0.0 0.00 0.07 0.02 86 1009.4
20260904033005 58 71 0.0 0.0 0.00 0.07 0.02 85 1009.3
20260904031504 58 71 0.0 0.0 0.00 0.07 0.02 83 1009.4
20260904030004 59 71 0.0 0.0 0.00 0.08 0.02 81 1009.3
20260904024506 60 71 0.0 0.0 0.00 0.08 0.02 78 1009.2
20260904023003 61 71 0.0 1.0 0.00 0.08 0.02 77 1009.2
20260904021502 61 15 0.0 0.0 0.00 0.08 0.02 78 1009.2
20260904020002 62 75 0.0 1.0 0.00 0.16 0.02 77 1009.1
20260904014502 62 322 0.0 2.0 0.00 0.16 0.02 74 1009.1
20260904013001 62 303 0.0 1.0 0.00 0.16 0.02 72 1008.9
20260904011601 63 325 0.0 2.0 0.00 0.16 0.02 70 1008.9
20260904004600 64 306 1.0 3.0 0.00 0.21 0.02 69 1008.8
20260904003100 65 328 0.0 6.0 0.00 0.21 0.02 70 1008.7
20260904001605 66 345 0.0 4.0 0.00 0.21 0.02 67 1008.8
20260904000058 68 356 0.0 4.0 0.00 0.21 0.02 62 1008.8
20260903234558 69 121 0.0 2.0 0.00 0.33 0.02 55 1008.8
20260903233057 70 110 0.0 3.0 0.00 0.33 0.02 55 1008.8
20260903231556 70 118 0.0 3.0 0.00 0.33 0.02 55 1008.8
20260903230055 69 219 0.0 2.0 0.00 0.33 0.02 57 1008.8
20260903224554 68 207 0.0 2.0 0.00 0.34 0.02 59 1008.8
20260903223056 69 2 0.0 5.0 0.00 0.34 0.02 55 1009.0
20260903221552 69 207 0.0 3.0 0.00 0.34 0.02 56 1009.0
20260903214548 67 44 0.0 3.0 0.00 0.36 0.02 61 1009.2
20260903213048 67 89 0.0 0.0 0.00 0.36 0.02 62 1009.3
20260903211545 66 30 1.0 4.0 0.00 0.36 0.02 62 1009.4
20260903210055 67 102 0.0 4.0 0.00 0.36 0.02 62 1009.3
20260903204543 66 47 1.0 6.0 0.00 0.37 0.02 61 1009.3
20260903203039 65 141 0.0 3.0 0.00 0.37 0.02 68 1009.3
20260903201537 64 84 0.0 3.0 0.00 0.37 0.02 68 1009.3
20260903200035 64 52 0.0 2.0 0.00 0.37 0.02 71 1009.4
20260903194544 63 65 0.0 1.0 0.00 0.37 0.02 75 1009.4
20260903193029 62 77 0.0 2.0 0.00 0.37 0.02 77 1009.4
20260903191526 61 63 0.0 1.0 0.00 0.37 0.02 78 1009.3
20260903190024 60 47 0.0 2.0 0.00 0.37 0.02 80 1009.4
20260903184521 59 52 0.0 3.0 0.00 0.37 0.02 84 1009.5
20260903183019 59 70 0.0 3.0 0.00 0.37 0.02 87 1009.4
20260903181517 58 300 0.0 0.0 0.00 0.37 0.02 90 1009.4
20260903180021 58 63 0.0 1.0 0.01 0.37 0.02 90 1009.2
20260903174515 57 61 0.0 1.0 0.01 0.37 0.02 90 1009.2
20260903173023 57 69 0.0 0.0 0.01 0.37 0.02 90 1009.1
20260903171512 57 31 0.0 0.0 0.01 0.37 0.02 88 1009.1
20260903170010 57 354 0.0 0.0 0.00 0.36 0.01 88 1008.8
20260903164510 57 60 0.0 1.0 0.00 0.36 0.01 88 1008.6
20260903163013 57 345 0.0 1.0 0.01 0.36 0.01 90 1008.5
20260903161507 57 236 0.0 0.0 0.01 0.36 0.01 91 1008.5
20260903160010 57 236 0.0 0.0 0.01 0.36 0.01 91 1008.5
20260903154506 57 236 0.0 0.0 0.01 0.36 0.01 89 1008.4
20260903153004 57 330 0.0 1.0 0.00 0.35 0.00 87 1008.2
20260903151502 57 70 0.0 1.0 0.00 0.35 0.00 88 1008.1
20260903150000 57 23 0.0 1.0 0.00 0.35 0.00 87 1007.9
20260903144600 57 339 0.0 2.0 0.00 0.35 0.00 89 1007.7